Weather History for Greeley, CO

Change the Weather History Date:

Saturday, October 5, 2013

  Actual Average Record
Temperature  
Mean Temperature 46 °F -  
Max Temperature 60 °F 67 °F 87 °F (1993)
Min Temperature 33 °F 37 °F 24 °F (1985)
Degree Days  
Heating Degree Days 18    
Moisture  
Dew Point 20 °F    
Average Humidity 40    
Maximum Humidity 65    
Minimum Humidity 15    
Precipitation  
Precipitation 0.00 in - - ()
Sea Level Pressure  
Sea Level Pressure 30.16 in    
Wind  
Wind Speed 15 mph (NW)    
Max Wind Speed 32 mph    
Max Gust Speed 39 mph    
Visibility 10 miles    
Events      
Averages and records for this station are not official NWS values.
T = Trace of Precipitation, MM = Missing Value Source: NWS Daily Summary

Daily Weather History Graph

Daily Weather History Graph

Search for Another Location

Airport:

Trip Planner

Search our weather history database for the weather conditions in past years. The results will help you decide how hot, cold, wet, or windy it might be!

Date:

Astronomy

Oct. 05, 2013 Rise Set
Actual Time 6:59 AM MDT 6:33 PM MDT
Civil Twilight 6:32 AM MDT 7:00 PM MDT
Nautical Twilight 6:00 AM MDT 7:32 PM MDT
Astronomical Twilight 5:28 AM MDT 8:04 PM MDT
Moon 7:41 AM MDT (10/5) 6:53 PM MDT (10/5)
Length of Visible Light 12h 28m
Length of Day
11h 34m
New Moon, 1% of the Moon is Illuminated
Oct 5
New Moon
Oct 11
First Quarter
Oct 18
Full
Oct 26
Last Quarter
Nov 3
New

Hourly Weather History & Observations

Time (MDT) Temp. Windchill Dew Point Humidity Pressure Visibility Wind Dir Wind Speed Gust Speed Precip Events Conditions
12:15 AM 35.6 °F 24.5 °F 19.4 °F 52% 30.17 in 10.0 mi NNW 20.7 mph 24.2 mph N/A   Clear
12:35 AM 35.6 °F 25.2 °F 19.4 °F 52% 30.18 in 10.0 mi NNW 18.4 mph 25.3 mph N/A   Clear
12:55 AM 35.6 °F 25.9 °F 19.4 °F 52% 30.18 in 10.0 mi NNW 16.1 mph - N/A   Clear
1:15 AM 35.6 °F 24.8 °F 17.6 °F 48% 30.18 in 10.0 mi NW 19.6 mph 26.5 mph N/A   Clear
1:35 AM 35.6 °F 24.5 °F 19.4 °F 52% 30.18 in 10.0 mi NNW 20.7 mph 26.5 mph N/A   Clear
1:55 AM 35.6 °F 25.9 °F 19.4 °F 52% 30.19 in 10.0 mi NW 16.1 mph - N/A   Clear
2:15 AM 35.6 °F 26.2 °F 19.4 °F 52% 30.19 in 10.0 mi NW 15.0 mph - N/A   Clear
2:35 AM 37.4 °F 26.9 °F 19.4 °F 48% 30.18 in 10.0 mi NW 20.7 mph 26.5 mph N/A   Clear
2:55 AM 37.4 °F 28.2 °F 19.4 °F 48% 30.18 in 10.0 mi NW 16.1 mph 23.0 mph N/A   Clear
3:15 AM 37.4 °F 30.3 °F 19.4 °F 48% 30.18 in 10.0 mi NW 10.4 mph - N/A   Scattered Clouds
3:35 AM 37.4 °F 29.8 °F 21.2 °F 52% 30.18 in 10.0 mi WNW 11.5 mph - N/A   Mostly Cloudy
3:55 AM 33.8 °F 28.6 °F 21.2 °F 60% 30.18 in 10.0 mi WNW 5.8 mph - N/A   Partly Cloudy
4:15 AM 37.4 °F 28.2 °F 21.2 °F 52% 30.18 in 10.0 mi NW 16.1 mph - N/A   Scattered Clouds
4:35 AM 39.2 °F 30.5 °F 21.2 °F 49% 30.19 in 10.0 mi NW 16.1 mph - N/A   Mostly Cloudy
4:55 AM 37.4 °F 28.5 °F 19.4 °F 48% 30.18 in 10.0 mi NNW 15.0 mph - N/A   Partly Cloudy
5:15 AM 37.4 °F 29.3 °F 19.4 °F 48% 30.18 in 10.0 mi NW 12.7 mph - N/A   Clear
5:35 AM 37.4 °F 29.3 °F 19.4 °F 48% 30.17 in 10.0 mi NW 12.7 mph - N/A   Clear
5:55 AM 37.4 °F 27.2 °F 19.4 °F 48% 30.17 in 10.0 mi NW 19.6 mph 24.2 mph N/A   Scattered Clouds
6:15 AM 39.2 °F 30.5 °F 19.4 °F 45% 30.17 in 10.0 mi NW 16.1 mph - N/A   Scattered Clouds
6:35 AM 39.2 °F 31.6 °F 21.2 °F 49% 30.16 in 10.0 mi NW 12.7 mph - N/A   Mostly Cloudy
6:55 AM 41.0 °F 32.2 °F 21.2 °F 45% 30.16 in 10.0 mi WNW 18.4 mph 26.5 mph N/A   Overcast
7:15 AM 41.0 °F 33.1 °F 21.2 °F 45% 30.16 in 10.0 mi WNW 15.0 mph 23.0 mph N/A   Overcast
7:35 AM 41.0 °F 35.2 °F 21.2 °F 45% 30.17 in 10.0 mi WNW 9.2 mph - N/A   Overcast
7:55 AM 41.0 °F 37.1 °F 23.0 °F 49% 30.17 in 10.0 mi WNW 5.8 mph - N/A   Overcast
8:15 AM 42.8 °F 38.0 °F 23.0 °F 46% 30.16 in 10.0 mi West 8.1 mph - N/A   Overcast
8:35 AM 44.6 °F - 24.8 °F 46% 30.17 in 10.0 mi Calm Calm - N/A   Partly Cloudy
8:55 AM 44.6 °F 42.2 °F 28.4 °F 53% 30.18 in 10.0 mi South 4.6 mph - N/A   Clear
9:15 AM 42.8 °F 39.3 °F 28.4 °F 57% 30.19 in 10.0 mi South 5.8 mph - N/A   Clear
9:35 AM 44.6 °F 41.4 °F 30.2 °F 57% 30.19 in 10.0 mi South 5.8 mph - N/A   Mostly Cloudy
9:55 AM 46.4 °F 42.4 °F 28.4 °F 50% 30.19 in 10.0 mi SSE 8.1 mph - N/A   Partly Cloudy
10:15 AM 48.2 °F - 28.4 °F 46% 30.19 in 10.0 mi SSE 8.1 mph - N/A   Clear
10:35 AM 50.0 °F - 28.4 °F 43% 30.19 in 10.0 mi SE 4.6 mph - N/A   Clear
10:55 AM 51.8 °F - 26.6 °F 38% 30.18 in 10.0 mi SSW 3.5 mph - N/A   Clear
11:15 AM 51.8 °F - 26.6 °F 38% 30.19 in 10.0 mi SSW 3.5 mph - N/A   Clear
11:35 AM 53.6 °F - 24.8 °F 33% 30.18 in 10.0 mi NW 5.8 mph - N/A   Clear
11:55 AM 57.2 °F - 21.2 °F 25% 30.17 in 10.0 mi NW 19.6 mph 28.8 mph N/A   Clear
12:15 PM 57.2 °F - 17.6 °F 21% 30.17 in 10.0 mi NW 20.7 mph 31.1 mph N/A   Clear
12:35 PM 57.2 °F - 15.8 °F 20% 30.16 in 10.0 mi NNW 28.8 mph 33.4 mph N/A   Clear
12:55 PM 59.0 °F - 15.8 °F 19% 30.14 in 10.0 mi NW 26.5 mph 33.4 mph N/A   Clear
1:15 PM 60.8 °F - 14.0 °F 16% 30.13 in 10.0 mi NNW 24.2 mph 29.9 mph N/A   Clear
1:35 PM 60.8 °F - 12.2 °F 15% 30.12 in 10.0 mi NW 29.9 mph 33.4 mph N/A   Clear
1:55 PM 60.8 °F - 12.2 °F 15% 30.12 in 10.0 mi NNW 32.2 mph 38.0 mph N/A   Clear
2:15 PM 60.8 °F - 12.2 °F 15% 30.12 in 10.0 mi NW 28.8 mph 39.1 mph N/A   Clear
2:35 PM 60.8 °F - 12.2 °F 15% 30.12 in 10.0 mi NNW 32.2 mph 38.0 mph N/A   Clear
2:55 PM 60.8 °F - 12.2 °F 15% 30.13 in 10.0 mi NNW 26.5 mph 35.7 mph N/A   Clear
3:15 PM 60.8 °F - 12.2 °F 15% 30.12 in 10.0 mi NNW 31.1 mph 38.0 mph N/A   Clear
3:35 PM 59.0 °F - 12.2 °F 16% 30.12 in 10.0 mi NNW 28.8 mph 35.7 mph N/A   Clear
3:55 PM 60.8 °F - 12.2 °F 15% 30.12 in 10.0 mi NNW 31.1 mph 34.5 mph N/A   Clear
4:15 PM 60.8 °F - 14.0 °F 16% 30.12 in 10.0 mi NW 23.0 mph 29.9 mph N/A   Clear
4:35 PM 59.0 °F - 14.0 °F 17% 30.13 in 10.0 mi NNW 26.5 mph 32.2 mph N/A   Clear
4:55 PM 59.0 °F - 14.0 °F 17% 30.13 in 10.0 mi NW 27.6 mph 32.2 mph N/A   Clear
5:15 PM 57.2 °F - 15.8 °F 20% 30.13 in 10.0 mi NNW 24.2 mph 31.1 mph N/A   Clear
5:35 PM 57.2 °F - 15.8 °F 20% 30.13 in 10.0 mi NNW 18.4 mph - N/A   Clear
5:55 PM 57.2 °F - 14.0 °F 18% 30.12 in 10.0 mi NNW 17.3 mph - N/A   Clear
6:15 PM 55.4 °F - 15.8 °F 21% 30.13 in 10.0 mi NNW 12.7 mph - N/A   Clear
6:35 PM 51.8 °F - 15.8 °F 24% 30.13 in 10.0 mi NW 8.1 mph - N/A   Clear
6:55 PM 50.0 °F - 17.6 °F 28% 30.13 in 10.0 mi NW 5.8 mph - N/A   Clear
7:15 PM 48.2 °F - 17.6 °F 30% 30.14 in 10.0 mi Calm Calm - N/A   Clear
7:35 PM 46.4 °F 44.3 °F 19.4 °F 34% 30.15 in 10.0 mi North 4.6 mph - N/A   Clear
7:55 PM 39.2 °F 35.0 °F 19.4 °F 45% 30.15 in 10.0 mi North 5.8 mph - N/A   Clear
8:15 PM 39.2 °F 34.2 °F 19.4 °F 45% 30.16 in 10.0 mi NE 6.9 mph - N/A   Clear
8:35 PM 35.6 °F 28.0 °F 21.2 °F 56% 30.17 in 10.0 mi NE 10.4 mph - N/A   Clear
8:55 PM 35.6 °F 29.9 °F 21.2 °F 56% 30.18 in 10.0 mi North 6.9 mph - N/A   Clear
9:15 PM 39.2 °F 33.6 °F 21.2 °F 49% 30.18 in 10.0 mi ESE 8.1 mph - N/A   Clear
9:35 PM 37.4 °F 31.4 °F 21.2 °F 52% 30.19 in 10.0 mi East 8.1 mph - N/A   Clear
9:55 PM 37.4 °F 34.9 °F 21.2 °F 52% 30.20 in 10.0 mi SE 3.5 mph - N/A   Clear
10:15 PM 33.8 °F 28.6 °F 21.2 °F 60% 30.19 in 10.0 mi ENE 5.8 mph - N/A   Clear
10:35 PM 35.6 °F 28.6 °F 21.2 °F 56% 30.20 in 10.0 mi ENE 9.2 mph - N/A   Clear
10:55 PM 35.6 °F 31.7 °F 21.2 °F 56% 30.20 in 10.0 mi SW 4.6 mph - N/A   Clear
11:15 PM 35.6 °F - 23.0 °F 60% 30.20 in 10.0 mi Calm Calm - N/A   Clear
11:35 PM 35.6 °F 32.8 °F 24.8 °F 65% 30.20 in 10.0 mi West 3.5 mph - N/A   Clear
11:55 PM 35.6 °F 31.7 °F 24.8 °F 65% 30.20 in 10.0 mi SW 4.6 mph - N/A   Clear